Regional Weather Roundup
Issued by NWS Kansas City/Pleasant Hill, MO

Home | Current Version | Previous Version | Graphics & Text | Print | Product List | Glossary Off
Versions: 1 2 3 4 5 6 7 8 9 10 11 12 13 14 15 16 17 18 19 20 21 22 23 24 25 26 27 28 29 30 31 32 33 34 35 36 37 38 39 40 41 42 43 44 45 46 47 48 49 50

000
ASUS43 KEAX 292304
RWREAX

WEATHER ROUNDUP FOR EASTERN KANSAS AND NORTHWEST MISSOURI
NATIONAL WEATHER SERVICE KANSAS CITY/PLEASANT HILL MO
600 PM CDT SUN MAR 29 2015

KSZ040-057-103>105-MOZ028-029-037-043-300000-
...KANSAS CITY METROPOLITAN AREA...

CITY           SKY/WX    TMP DP  RH WIND       PRES   REMARKS
K.C. INTL      MOSUNNY   62  42  47 N14G24    30.02R
K.C. DOWNTOWN  LGT RAIN  65  40  39 NW16G24   30.00R
LEES SUMMIT    MOSUNNY   65  41  41 NW21G28   30.00R
OLATHE - IXD   SUNNY     66  41  40 NW21      30.02R
OLATHE - OJC   SUNNY     66  41  40 N15G22    30.00R
LAWRENCE       SUNNY     65  41  41 NW23      30.03R

$$

MOZ001>008-011>017-020>025-030>033-038>040-044>046-053-054-300000-
...NORTHERN AND CENTRAL MISSOURI...

CITY           SKY/WX    TMP DP  RH WIND       PRES   REMARKS
ST. JOSEPH     SUNNY     61  37  41 N23       30.04R
MOSBY          CLEAR     63  41  45 NW20      30.00R
WARRENSBURG    MOSUNNY   66  37  34 NW16G22   29.98R
WHITEMAN AFB   MOSUNNY   66  42  41 NW10      29.96S
CLINTON        PTSUNNY   63  45  51 SW6       29.99F
SEDALIA        PTSUNNY   62  43  49 SW10      29.98S
WARSAW         NOT AVBL
MARSHALL       MOSUNNY   68  43  40 NW22G30   29.97R
CHILLICOTHE      N/A     62  42  47 NW15G24   30.00R
MOBERLY        CLOUDY    63  41  45 W10       29.95S
KIRKSVILLE     MOSUNNY   60  41  49 NW20G29   29.96R

$$

MOZ041-047>049-056>058-063>065-088>090-097-300000-
...EASTERN AND SOUTHERN MISSOURI...

CITY           SKY/WX    TMP DP  RH WIND       PRES   REMARKS
ST. LOUIS INTL CLOUDY    57  43  59 W8        29.96R
SPIRIT OF STL  CLOUDY    57  41  55 W10       29.96R
COLUMBIA       PTSUNNY   58  42  55 SW10      29.97F
JEFFERSON CITY PTSUNNY   60  40  47 W9        29.97F
MEXICO         PTSUNNY   59  46  63 SW12      29.95F
ROLLA          PTSUNNY   56  38  50 W10       29.98R
LEBANON        PTSUNNY   57  41  54 W10       30.01R
OSAGE BEACH    PTSUNNY   61  37  41 W6        30.00F
SPRINGFIELD    PTSUNNY   59  43  55 W12       30.02R
BRANSON        CLOUDY    64  43  45 N6        30.01
NEVADA         CLOUDY    63  45  51 SW5       30.02S
JOPLIN         PTSUNNY   60  42  51 NW8       30.05R
WEST PLAINS    CLOUDY    60  42  51 W3        29.99F

$$

IAZ060-094-KSZ022-034>040-054-083-096-NEZ052-066-093-300000-
...KANSAS...SOUTHEAST NEBRASKA AND IOWA...

CITY           SKY/WX    TMP DP  RH WIND       PRES   REMARKS
TOPEKA         SUNNY     64  40  41 NW17G24   30.05R
EMPORIA        SUNNY     69  33  26 N16G28    30.04R
CHANUTE        PTSUNNY   73  40  30 N12       30.02R
WICHITA        MOSUNNY   72  33  24 N17       30.05S
OMAHA          SUNNY     62  24  23 N21G29    30.03S
LINCOLN        SUNNY     64  25  22 N21       30.08R
FALLS CITY     SUNNY     62  31  31 NW18G28   30.05R
LAMONI         SUNNY     58  36  43 NW22G32   29.99R
DES MOINES     MOSUNNY   62  23  22 NW23G32   29.95R

$$



USA.gov is the U.S. government's official web portal to all federal, state and local government web resources and services.